Regional Weather Roundup
Issued by NWS

Home | Current Version | Previous Version | Text Only | Print | Product List | Glossary On
Versions: 1 2 3 4 5 6 7 8 9 10 11 12 13 14 15 16 17 18 19 20 21 22 23 24 25 26 27 28 29 30 31 32 33 34 35 36 37 38 39 40 41 42 43 44 45 46 47 48 49 50
000
ASUS43 KBIS 252310
RWRND

NORTH DAKOTA REGIONAL WEATHER ROUNDUP
NATIONAL WEATHER SERVICE BISMARCK ND
600 PM CDT MON SEP 25 2017

NOTE: "FAIR" INDICATES FEW OR NO CLOUDS BELOW 12,000 FEET WITH NO
SIGNIFICANT WEATHER AND/OR OBSTRUCTIONS TO VISIBILITY.


NDZ001>003-009>011-017-260000-
NORTHWEST NORTH DAKOTA

CITY           SKY/WX    TMP DP  RH WIND       PRES   REMARKS
WILLISTON      LGT RAIN  50  45  83 SE6       30.13R
MINOT          LGT RAIN  53  43  68 E5        30.12S
MINOT AFB      CLOUDY    53  41  64 E5        30.11F
$$

NDZ018>021-031>035-040>046-260000-
SOUTHWEST NORTH DAKOTA

CITY           SKY/WX    TMP DP  RH WIND       PRES   REMARKS
BISMARCK       CLOUDY    53  44  71 E7        30.12S
DICKINSON      CLOUDY    47  42  83 CALM      30.10S
GARRISON         N/A     51  42  71 NE7       30.12F
HETTINGER ARPT CLOUDY    49  38  65 CALM      30.13R
$$

NDZ004>008-012>016-024-026-027-054-260000-
NORTHEAST NORTH DAKOTA

CITY           SKY/WX    TMP DP  RH WIND       PRES   REMARKS
GRAND FORKS    CLOUDY    53  48  83 N9        30.12S
GRND FRKS AFB  CLOUDY    52  46  80 N12       30.12S
DEVILS LAKE    CLOUDY    51  41  68 NE12      30.14S
$$

NDZ022-023-025-028>030-036>039-047>053-260000-
SOUTHEAST NORTH DAKOTA

CITY           SKY/WX    TMP DP  RH WIND       PRES   REMARKS
FARGO          CLOUDY    53  48  83 N12       30.09S
JAMESTOWN      CLOUDY    50  43  77 NE10      30.10F
$$





USA.gov is the U.S. government's official web portal to all federal, state and local government web resources and services.